Regional Weather Roundup
Issued by NWS

Home | Current Version | Previous Version | Text Only | Print | Product List | Glossary Off
Versions: 1 2 3 4 5 6 7 8 9 10 11 12 13 14 15 16 17 18 19 20 21 22 23 24 25 26 27 28 29 30 31 32 33 34 35 36 37 38 39 40 41 42 43 44 45 46 47 48 49 50

415
ASUS44 KMEG 252310
RWRTN
TENNESSEE HOURLY STATE WEATHER ROUNDUP
NATIONAL WEATHER SERVICE MEMPHIS TN
600 PM CDT SAT MAR 25 2017

TNZ002-004-019-021-049-052-054-088>092-260000-
WEST TENNESSEE

CITY           SKY/WX    TMP DP  RH WIND       PRES   REMARKS
MEMPHIS INTL   CLOUDY    67  58  72 S15       29.87F
NWS MEMPHIS      N/A     66 N/A N/A MISG        N/A
JACKSON        CLOUDY    65  57  75 S10G18    29.91S
DYERSBURG      CLOUDY    65  57  75 S9G20     29.87F
SOMERVILLE     PTSUNNY   64  57  77 S8G15     29.89R
BOLIVAR        PTSUNNY   61  59  94 SE7       29.90F
PARIS          PTSUNNY   63  54  72 S13       29.91F
HUNTINGDON     CLOUDY    64  57  77 S10G16    29.90F
SAVANNAH       MOSUNNY   64  57  77 S13       29.92F
$$

TNZ008-025-027-028-033-062-065-066-260000-
NORTH MIDDLE TENNESSEE

CITY           SKY/WX    TMP DP  RH WIND       PRES   REMARKS
NASHVILLE      CLOUDY    65  56  72 S14G23    30.00R
PORTLAND       SUNNY     66  57  72 S16G22    29.98F
CLARKSVILLE    CLOUDY    69  53  56 S10       29.92F
SMYRNA         LGT RAIN  62  57  83 SE10G20   30.02S
COOKEVILLE     PTSUNNY   64  55  72 W5G16     30.03R
GALLATIN       PTSUNNY   66  57  72 SE12G20   30.02S
CROSSVILLE     MOSUNNY   69  48  47 S7G16     30.06F
$$

TNZ061-075-076-078-094-096-097-260000-
SOUTH MIDDLE TENNESSEE

CITY           SKY/WX    TMP DP  RH WIND       PRES   REMARKS
FAYETTEVILLE   SUNNY     61  57  88 S9        30.04S FOG
TULLAHOMA      PTSUNNY   59  55  88 S3        30.05S
WINCHESTER     PTSUNNY   61  57  88 S6        30.06F
MCMINNVILLE    CLOUDY    61  61 100 SW5       30.06S
COLUMBIA       MOSUNNY   66  57  72 S13       29.97S
SHELBYVILLE    PTSUNNY  N/A N/A N/A MISG      30.04S
$$

TNZ017-018-042-046-047-260000-
NORTHEAST TENNESSEE

CITY           SKY/WX    TMP DP  RH WIND       PRES   REMARKS
TRI CITIES     MOCLDY    73  48  41 S8        30.10S
ELIZABETHTON   MOCLDY    72  48  43 VRB6      30.11R
$$

TNZ012-013-036-069-073-074-260000-
CENTRAL EAST TENNESSEE

CITY           SKY/WX    TMP DP  RH WIND       PRES   REMARKS
KNOXVILLE      MOCLDY    74  46  36 S13       30.06S
OAK RIDGE      PTCLDY    74  47  38 S3        30.06F
DOWNTOWN KNOXV MOCLDY    75  48  38 W8        30.06S
GATLINBURG     CLEAR     73  45  35 SW13      30.06S
MORRISTOWN     CLEAR     73  46  38 S5        30.07S
JACKSBORO      PTCLDY    72  48  43 S8        30.09F
$$

TNZ083-085-099-260000-
SOUTHEAST TENNESSEE

CITY           SKY/WX    TMP DP  RH WIND       PRES   REMARKS
CHATTANOOGA    CLOUDY    75  49  39 SE9       30.02F
$$

SKY/WX REPORTED AS FAIR MEANS FEW OR NO CLOUDS BELOW
12 THOUSAND FEET.





USA.gov is the U.S. government's official web portal to all federal, state and local government web resources and services.